Location: Chihuahua
(28.6330°N, 106.0830°W)
Time: 09:52:54
(UTC-07:00)

Daily predictions for brighter satellites

Satellite Brightness Start Highest point End
(mag) Time Altitude Azimuth Time Altitude Azimuth Time Altitude Azimuth
NOAA 12 4.4 18:21:29 10° SE 18:26:30 45° ENE 18:31:33 10° N
Tiangong 2 1.0 18:24:06 10° NW 18:27:09 63° NE 18:30:11 10° ESE
Meteor 1-28 Rocket 4.1 18:25:09 10° N 18:28:54 56° WNW 18:32:37 10° SSW
Cosmos 1484 Rocket 3.9 18:25:37 10° S 18:29:28 50° W 18:33:18 10° NNW
Cosmos 1741 Rocket 4.0 18:24:31 10° S 18:29:39 61° ESE 18:34:47 10° NNE
GPS 2-04 Rocket1 3.7 18:27:56 10° W 18:31:58 43° NNW 18:36:06 10° ENE
Cosmos 1633 2.8 18:31:35 10° S 18:35:15 77° W 18:38:56 10° N
Cosmos 2322 Rocket 3.1 18:30:13 10° NNW 18:35:41 54° WSW 18:41:08 10° S
Cosmos 1461 3.8 18:33:23 10° NW 18:37:20 52° WSW 18:41:25 10° S
Cosmos 1536 Rocket 3.6 18:33:09 10° N 18:37:38 88° E 18:42:06 10° S
OAO 3 Rocket 3.9 18:34:52 10° SW 18:39:29 40° SSE 18:43:34 13° E
GEOS 3 Rocket 3.8 18:36:29 10° NE 18:41:40 55° ESE 18:46:50 10° SSW
Cosmos 1140 Rocket 4.4 18:38:10 10° SSW 18:43:08 52° WNW 18:48:10 10° N
METEOR-M 4.1 18:39:41 10° SSE 18:44:59 70° ENE 18:50:17 10° N
Hubble Space Telescope 1.0 18:40:57 10° WSW 18:45:00 57° SSE 18:48:14 15° E
Cosmos 614 Rocket 4.3 18:41:08 10° SSW 18:46:11 67° WNW 18:51:14 10° N
SJ-6B 3.0 18:42:43 10° SSE 18:46:36 48° ENE 18:50:24 10° N
Cosmos 1570 Rocket 4.5 18:49:27 10° N 18:54:18 38° ENE 18:59:08 10° SE
Cosmos 2322 3.7 18:50:05 10° NNW 18:55:45 65° ENE 19:01:23 10° SSE
Cosmos 1300 Rocket 4.5 18:51:52 10° SSW 18:56:09 52° W 19:00:29 10° N
H-2A R/B 3.7 18:57:58 18° ESE 18:59:35 25° ENE 19:02:39 10° NNE
Intercosmos 24 4.2 18:56:20 10° SSE 19:00:08 55° E 19:05:20 10° NNE
Meteor 1-19 Rocket 4.2 18:54:47 10° N 19:00:32 81° E 19:06:21 10° S
Spot 2 Rocket 3.9 18:59:48 10° SE 19:04:26 38° ENE 19:09:06 10° N
Okean 2 4.5 19:02:27 10° NNE 19:05:39 24° ENE 19:05:39 24° ENE
Cosmos 2297 Rocket 3.2 19:03:00 10° SSE 19:07:24 24° ESE 19:08:19 23° E
Helios 1B rocket 3.1 19:05:46 10° NE 19:09:31 33° E 19:13:14 10° SSE
Resurs 01 Rocket 1.9 19:06:26 10° SSE 19:10:38 45° ENE 19:14:50 10° N
DELTA 2 R/B (1) 3.6 19:05:52 10° WNW 19:11:29 70° NNE 19:14:43 26° ESE
Cosmos 2237 Rocket 4.1 19:09:12 10° NE 19:10:07 11° NE 19:10:07 11° NE
COSMOS 2428 3.0 19:08:04 10° N 19:13:29 45° ENE 19:17:41 16° SE
Cosmos 2237 4.2 19:07:50 10° N 19:13:29 60° ENE 19:19:05 10° SSE
USA 229 DEB 4.5 19:08:05 10° N 19:14:28 33° NE 19:17:25 25° E
USA 229 4.5 19:08:12 10° N 19:14:34 33° NE 19:17:28 25° E
Cosmos 1238 Rocket 3.8 19:12:15 10° NNW 19:15:02 37° W 19:18:01 10° SSW
Cosmos 1536 3.9 19:12:02 10° SSW 19:15:52 47° W 19:19:44 10° N
Atlas Centaur 2 3.3 19:11:15 10° SW 19:18:15 39° SSE 19:21:05 27° ESE
Meteor 2-4 Rocket 3.5 19:12:47 10° N 19:18:15 81° E 19:23:36 10° S
HJ-1C 3.2 19:15:02 10° SSE 19:18:24 85° E 19:21:47 10° N
SL-19 R/B 4.3 19:13:52 10° SSE 19:19:21 60° ENE 19:25:10 10° N
Cosmos 1610 Rocket 4.4 19:14:50 10° S 19:20:58 61° E 19:27:03 10° NNE
Meteor 1-23 Rocket 4.2 19:15:48 10° N 19:21:34 69° E 19:27:13 10° SSE
BREEZE-M DEB (TANK) 4.2 19:18:52 10° N 19:22:01 27° NE 19:22:41 26° ENE
Delta R/B 4.2 19:07:26 10° W 19:22:13 79° S 19:23:55 37° E
Resurs 1-3 3.6 19:19:18 11° SSE 19:23:21 53° ENE 19:27:37 10° N
Cosmos 2208 Rocket 3.9 19:18:45 10° N 19:24:10 71° ENE 19:29:29 10° SSE
Cosmos 2219 4.5 19:18:52 10° SW 19:24:17 43° WNW 19:29:43 10° N
Cosmos 2360 Rocket 2.9 19:19:35 10° NNW 19:25:06 56° WSW 19:30:37 10° S
Cosmos 2219 Rocket 3.0 19:20:43 10° N 19:25:25 30° ENE 19:25:25 30° ENE
CZ-3 Stage 3 4.3 18:18:11 10° SW 19:26:27 56° SSE 19:32:49 28° E
Cosmos 2227 Rocket 2.3 19:22:02 10° S 19:27:30 52° ESE 19:31:29 18° NE
OTV 4 2.0 19:31:02 10° W 19:33:37 29° NNW 19:33:37 29° NNW
Skynet4D Del rocket 3.6 19:29:43 10° WSW 19:35:03 64° S 19:36:27 46° ESE
BREEZE-M DEB (TANK) 2.6 19:36:44 10° NW 19:40:36 67° W 19:40:36 67° W
Cosmos 1486 Rocket 3.9 19:42:16 10° S 19:47:33 68° ESE 19:48:30 56° NE
ALOS 3.4 19:43:30 10° S 19:47:56 44° W 19:52:23 10° NNW
FUSE 4.1 19:46:55 10° W 19:52:11 59° S 19:52:39 56° SSE
Cosmos 1025 Rocket 3.9 19:48:16 10° NNW 19:52:31 49° W 19:56:45 10° SSW
Cosmos 1544 Rocket 4.3 19:59:11 10° SSW 20:03:23 50° W 20:07:36 10° N
Cosmos 2333 Rocket 3.0 20:02:14 10° N 20:05:58 39° N 20:05:58 39° N
ATLAS CENTAUR R/B 4.2 20:06:03 10° WSW 20:09:00 16° WNW 20:09:45 15° NW
CZ-3C R/B 3.2 20:11:57 10° WSW 20:14:07 16° SW 20:14:07 16° SW
Nadezhda 3 Rocket 3.9 20:10:47 10° N 20:16:26 76° N 20:16:26 76° N
Cosmos 2341 Rocket 4.0 20:11:22 10° S 20:17:41 81° W 20:24:06 10° N
OAO 3 Rocket 4.4 20:18:04 10° W 20:21:24 41° W 20:21:24 41° W
SEDSat Delta rocket 4.3 20:17:03 10° WSW 20:22:19 54° SSW 20:22:19 54° SSW
Hubble Space Telescope 3.1 20:22:03 10° W 20:23:37 22° W 20:23:37 22° W
ATLAS 3B CENTAUR R/B 4.1 20:14:16 10° WSW 20:42:21 68° SSE 20:44:13 63° SE
Cosmos 2297 Rocket 3.7 20:46:06 10° SW 20:50:18 32° W 20:50:18 32° W
Cosmos 2237 Rocket 4.3 20:50:24 10° NNW 20:52:00 19° NNW 20:52:00 19° NNW
Atlas Centaur 2 4.2 21:00:42 10° WSW 21:03:45 27° WSW 21:03:45 27° WSW
Cosmos 2219 Rocket 4.4 21:04:43 10° NW 21:07:13 21° WNW 21:07:13 21° WNW
